TimeEST,TemperatureF,Dew PointF,Humidity,Sea Level PressureIn,VisibilityMPH,Wind Direction,Wind SpeedMPH,Gust SpeedMPH,PrecipitationIn,Events,Conditions,WindDirDegrees,DateUTC
12:54 AM,28.9,24.1,82,30.05,10.0,Calm,Calm,-,N/A,,Mostly Cloudy,0,2012-12-08 05:54:00
1:54 AM,28.0,25.0,88,30.04,10.0,Calm,Calm,-,N/A,,Clear,0,2012-12-08 06:54:00
2:54 AM,28.9,25.0,85,30.05,10.0,Calm,Calm,-,N/A,,Overcast,0,2012-12-08 07:54:00
3:54 AM,30.0,26.1,85,30.03,10.0,Calm,Calm,-,N/A,,Overcast,0,2012-12-08 08:54:00
4:54 AM,28.9,25.0,85,30.02,10.0,Calm,Calm,-,N/A,,Mostly Cloudy,0,2012-12-08 09:54:00
5:54 AM,30.0,25.0,82,30.02,10.0,Calm,Calm,-,N/A,,Mostly Cloudy,0,2012-12-08 10:54:00
6:54 AM,30.9,26.1,82,30.01,10.0,Calm,Calm,-,N/A,,Overcast,0,2012-12-08 11:54:00
7:54 AM,32.0,27.0,82,29.99,10.0,Calm,Calm,-,N/A,,Overcast,0,2012-12-08 12:54:00
8:54 AM,32.0,28.0,85,29.99,6.0,Calm,Calm,-,0.01,Snow,Light Snow,0,2012-12-08 13:54:00
9:54 AM,33.1,28.9,85,29.98,9.0,Calm,Calm,-,0.00,,Overcast,0,2012-12-08 14:54:00
10:54 AM,34.0,28.9,82,29.94,10.0,Calm,Calm,-,0.00,,Overcast,0,2012-12-08 15:54:00
11:02 AM,33.8,30.2,87,29.90,10.0,Calm,Calm,-,0.01,,Overcast,0,2012-12-08 16:02:00
11:54 AM,35.1,30.9,85,29.91,9.0,Calm,Calm,-,0.01,,Overcast,0,2012-12-08 16:54:00
12:54 PM,37.0,32.0,82,29.88,10.0,Calm,Calm,-,0.00,,Overcast,0,2012-12-08 17:54:00
1:54 PM,37.0,33.1,86,29.85,10.0,SSE,3.5,-,N/A,,Overcast,160,2012-12-08 18:54:00
2:54 PM,37.9,34.0,86,29.84,10.0,Calm,Calm,-,N/A,,Overcast,0,2012-12-08 19:54:00
3:02 PM,37.4,33.8,87,29.82,10.0,Calm,Calm,-,N/A,,Overcast,0,2012-12-08 20:02:00
3:54 PM,37.0,33.1,86,29.82,10.0,South,3.5,-,N/A,,Overcast,190,2012-12-08 20:54:00
4:54 PM,37.9,34.0,86,29.82,10.0,ESE,3.5,-,N/A,,Overcast,120,2012-12-08 21:54:00
5:54 PM,37.9,34.0,86,29.83,10.0,Calm,Calm,-,N/A,,Overcast,0,2012-12-08 22:54:00
6:23 PM,37.4,33.8,87,29.81,10.0,Calm,Calm,-,N/A,,Overcast,0,2012-12-08 23:23:00
6:54 PM,37.9,34.0,86,29.84,10.0,Calm,Calm,-,N/A,,Overcast,0,2012-12-08 23:54:00
8:25 PM,37.4,33.8,87,29.84,10.0,Calm,Calm,-,N/A,,Overcast,0,2012-12-09 01:25:00
8:35 PM,37.4,33.8,87,29.84,10.0,Calm,Calm,-,N/A,,Overcast,0,2012-12-09 01:35:00
8:54 PM,37.0,34.0,89,29.88,10.0,Calm,Calm,-,N/A,,Overcast,0,2012-12-09 01:54:00
9:54 PM,37.0,35.1,93,29.89,8.0,Calm,Calm,-,N/A,,Overcast,0,2012-12-09 02:54:00
10:54 PM,37.0,35.1,93,29.93,10.0,Calm,Calm,-,N/A,,Overcast,0,2012-12-09 03:54:00
11:09 PM,37.4,35.6,93,29.90,9.0,Calm,Calm,-,N/A,,Overcast,0,2012-12-09 04:09:00
11:54 PM,43.0,36.0,76,29.96,10.0,Variable,3.5,-,N/A,,Overcast,0,2012-12-09 04:54:00